Wind_Speed
57 57 58 57 56 55 53 51 51 51 52 53 54 54 55 56 57 58 58 59 61 63 65 66 66 66 66 67 69 71 73 75 76 76 75 74 72 70 68 66 65 64 63 63 63 63 63 64 65 66 67 68 70 72 74 76 78 79 79 78 77 77 77 76 75 71 66 68 72 74 78 81 81 84 89 91 94 98 100 104 108 107 104 102 100
58 58 58 57 56 54 53 53 53 54 56 57 57 57 57 58 59 59 60 61 62 63 65 66 67 67 69 70 72 74 76 77 77 75 73 72 70 68 67 65 65 63 63 63 63 63 63 63 65 67 68 69 71 73 74 74 75 75 75 75 75 75 77 77 77 76 73 71 73 75 78 82 83 84 89 93 96 100 104 107 108 107 104 102 101
56 56 56 56 55 55 54 55 55 56 57 58 58 59 59 60 60 61 62 63 64 65 67 68 69 71 72 73 74 76 77 76 75 72 71 69 68 67 66 65 64 63 63 63 63 62 63 64 66 67 68 69 69 70 70 71 72 72 72 73 74 75 77 79 79 80 79 76 75 76 79 83 85 86 90 94 98 103 107 108 106 104 102 102 101
55 54 54 54 55 54 54 55 56 57 57 58 59 60 61 61 62 63 64 66 67 69 70 71 73 73 74 75 75 75 75 73 71 70 69 68 68 67 65 64 63 63 62 62 62 62 63 65 65 65 64 64 65 66 67 68 69 70 70 72 74 76 78 80 81 82 82 80 78 79 82 83 85 88 92 96 100 104 107 106 104 103 101 101 100
56 54 54 54 54 54 54 56 57 57 58 60 61 61 62 63 64 65 66 68 70 71 73 74 74 74 74 74 73 72 71 69 69 69 68 68 67 65 64 62 62 61 61 60 61 62 63 64 63 61 61 62 65 66 67 67 68 70 71 73 75 77 78 80 82 83 83 83 81 81 82 83 86 89 94 98 102 104 105 103 102 102 100 99 99
58 57 56 56 55 56 57 58 58 59 60 61 62 62 63 64 66 67 69 70 71 73 74 74 74 73 72 71 70 69 68 68 68 68 67 66 65 64 63 62 62 61 60 60 61 62 64 64 62 61 64 65 65 65 66 68 70 71 72 74 75 77 78 80 82 83 84 84 84 83 83 85 88 92 96 101 104 104 103 101 100 100 100 99 97
59 59 58 58 58 58 58 59 59 60 61 62 62 63 64 66 68 70 71 72 72 73 73 72 70 69 68 67 66 66 66 66 65 65 64 63 62 62 62 61 61 60 59 60 61 62 63 63 64 65 66 65 64 65 67 69 71 71 73 74 76 77 78 80 81 83 84 85 85 85 86 88 92 95 99 102 103 102 102 103 101 98 97 98 93
60 59 59 60 60 60 60 61 62 62 62 63 63 64 65 67 69 70 71 71 70 69 67 66 64 63 63 63 63 63 63 62 61 61 60 59 58 58 58 58 58 59 60 61 61 61 62 64 65 65 65 65 66 67 68 69 70 71 73 75 76 77 79 81 83 85 86 86 86 87 89 92 95 99 101 102 101 100 101 104 103 98 95 91 82
61 61 62 62 62 63 63 64 63 63 63 64 64 65 66 68 68 68 68 67 65 64 62 61 61 61 62 63 63 64 63 62 61 60 60 58 56 56 56 57 58 59 60 60 61 63 65 66 64 63 64 65 66 67 68 70 71 72 74 76 77 79 80 82 84 86 88 88 88 90 93 95 98 100 102 101 100 100 102 103 102 99 91 79 68
63 64 64 64 64 64 64 64 63 63 64 64 65 66 66 66 66 66 65 64 62 61 61 61 62 62 63 63 64 64 64 64 63 63 61 58 56 56 56 57 58 60 61 62 64 67 67 65 63 63 65 65 66 67 69 71 72 73 75 77 79 81 82 83 85 87 89 90 90 92 95 98 99 100 101 100 100 102 103 102 101 96 83 67 58
67 67 66 64 64 64 63 63 63 64 64 65 66 66 66 65 65 64 63 62 61 61 61 62 62 63 64 64 64 64 65 65 64 63 61 59 57 57 57 58 60 62 63 64 65 64 63 62 63 64 64 65 66 68 69 71 73 75 77 78 80 82 83 84 86 88 90 91 92 93 96 99 101 99 99 100 101 102 104 103 101 90 71 59 54
68 66 65 64 64 63 63 63 64 65 65 65 66 66 66 65 63 62 61 61 61 61 61 62 62 62 62 61 61 62 63 63 61 60 59 58 57 57 58 60 62 62 61 61 60 59 60 61 62 63 65 66 68 68 69 71 73 75 77 79 80 82 83 85 87 88 90 91 92 93 96 101 101 98 97 99 101 102 103 102 98 83 63 53 51
70 68 67 66 64 64 64 65 66 66 66 66 66 65 64 63 61 60 60 59 59 59 59 59 58 58 57 58 58 60 61 59 57 56 56 57 57 58 60 60 59 57 57 58 58 59 61 62 64 65 67 68 69 70 70 71 73 75 77 78 80 81 83 86 87 88 89 91 93 94 97 100 100 97 96 100 102 103 103 99 90 76 59 51 50
73 71 69 67 66 66 67 67 67 67 67 66 65 64 62 60 59 58 58 58 57 57 56 56 55 55 55 56 58 59 60 59 56 55 55 56 57 58 58 57 56 56 57 58 59 61 62 63 65 67 68 69 70 71 71 72 73 75 76 78 80 82 84 85 85 87 89 91 94 96 97 97 97 96 96 99 102 102 100 93 81 69 60 53 50
73 70 69 68 68 68 68 68 68 68 67 65 63 60 58 57 57 57 57 57 56 55 54 54 54 54 55 56 58 60 60 59 57 55 55 55 55 56 56 56 56 57 58 60 60 62 63 64 66 67 69 71 71 72 72 73 74 76 77 80 81 83 84 84 85 86 88 90 94 97 98 97 96 97 97 99 102 100 94 85 72 64 62 57 53
71 70 70 71 71 69 68 69 68 67 65 62 59 57 56 57 57 57 57 56 55 53 52 52 53 53 54 56 57 59 60 60 58 57 57 57 58 58 58 58 59 59 60 61 62 63 65 66 68 70 71 72 72 73 74 75 76 78 79 81 82 83 82 83 84 86 87 90 94 96 97 96 97 99 100 101 101 96 89 79 66 61 63 62 59
72 73 74 74 72 69 69 69 68 66 63 59 57 56 56 57 57 56 55 55 53 52 51 51 51 52 53 55 56 58 59 59 59 58 58 59 60 60 60 60 60 61 61 62 62 64 66 68 70 71 72 73 73 75 76 78 79 80 81 82 82 82 82 82 83 84 86 90 92 94 95 95 97 99 100 100 96 89 82 73 62 61 65 64 60
74 76 76 74 72 70 70 70 69 67 62 58 57 57 57 56 56 56 56 55 54 54 53 53 52 52 53 54 55 56 57 58 58 58 58 59 59 59 59 60 60 59 60 61 62 64 65 68 70 72 73 74 76 77 79 81 81 82 83 84 83 82 82 82 82 83 85 88 90 92 93 94 96 98 98 96 88 79 74 68 62 63 66 62 57
74 75 74 72 71 71 71 72 71 67 61 58 57 57 56 56 56 57 57 56 56 57 57 55 54 54 54 55 55 56 57 58 58 58 58 58 57 57 57 57 57 58 59 59 61 62 65 68 71 73 75 77 79 80 82 83 84 85 85 85 84 83 82 82 83 84 85 87 89 90 91 92 95 98 96 91 80 71 68 66 63 64 63 58 54
72 72 72 72 72 72 72 73 71 67 62 59 58 57 57 57 58 57 57 57 58 58 57 56 55 55 54 54 54 56 57 58 57 57 57 55 53 53 54 55 56 57 57 58 60 63 66 69 72 74 76 79 81 82 84 85 86 86 86 85 84 84 83 82 83 84 86 88 89 90 90 91 94 96 93 84 73 65 64 64 64 63 61 56 54
70 71 71 73 73 73 73 73 72 70 66 63 61 60 59 59 59 58 58 57 57 57 56 55 55 55 54 53 54 56 57 58 58 56 53 52 53 54 55 55 56 56 57 60 64 67 70 71 73 75 77 80 82 84 85 86 86 85 85 84 84 84 83 83 83 85 87 89 90 90 90 92 94 93 86 76 66 61 61 63 62 61 59 56 52
70 71 72 73 74 74 73 73 73 73 70 66 64 63 62 60 60 59 58 57 56 56 56 56 56 55 53 52 52 54 57 59 60 58 57 59 62 61 60 59 59 60 63 66 70 72 73 73 73 75 77 80 83 85 86 86 85 84 83 83 82 83 83 84 85 86 88 89 90 91 92 93 94 89 77 66 61 59 59 60 59 58 56 53 50
68 69 71 72 72 72 73 73 74 74 71 69 68 65 63 62 62 61 59 57 56 56 56 56 55 54 52 52 53 54 57 59 62 63 65 68 70 69 67 66 66 67 69 71 72 73 73 73 73 75 78 81 84 86 86 85 84 82 81 81 81 82 83 84 86 87 89 90 90 91 92 94 93 82 67 59 57 56 57 57 55 54 52 49 47
64 65 66 67 68 70 72 74 76 76 75 74 71 66 64 64 64 63 61 59 58 58 56 54 53 52 52 53 55 57 59 62 64 66 68 70 72 72 72 71 71 72 73 73 72 71 71 71 73 75 79 82 84 86 85 84 82 80 79 79 80 81 83 85 87 88 89 90 91 92 92 94 89 73 58 55 55 54 54 54 51 50 48 46 45
64 64 64 65 67 70 72 74 75 76 76 75 72 69 68 69 67 65 63 62 61 61 59 54 52 52 53 55 57 59 61 63 65 67 69 71 73 74 75 75 76 76 75 73 70 69 69 71 74 78 81 83 84 84 82 80 78 77 77 78 80 82 84 86 88 89 89 90 91 92 92 90 80 64 53 52 53 52 52 50 48 47 46 44 44
62 62 63 65 67 69 71 73 73 75 75 73 72 72 72 71 70 67 66 65 64 63 61 58 55 54 54 56 59 61 63 64 66 68 70 73 75 77 78 79 80 79 76 72 70 70 71 74 76 79 81 82 82 80 78 76 75 75 77 78 80 82 85 86 88 89 90 91 92 91 90 84 70 56 50 50 50 51 50 47 45 45 44 44 43
62 61 63 65 67 68 70 70 67 66 68 69 71 72 72 72 71 70 69 67 67 67 67 64 60 58 58 59 62 63 64 66 67 69 71 73 76 77 79 80 80 78 74 72 72 72 74 76 77 78 79 79 78 77 75 74 74 75 77 78 80 83 85 87 88 90 91 92 92 91 87 76 60 51 49 48 48 49 48 46 44 43 43 43 41
63 62 64 67 68 70 72 73 69 65 65 66 69 72 72 72 72 72 70 67 65 67 69 68 65 64 64 64 65 65 66 68 69 70 72 74 76 78 79 79 78 76 73 72 73 74 75 75 75 76 75 74 74 73 72 72 73 74 76 78 80 82 84 86 88 90 91 92 91 88 79 66 54 49 48 46 46 46 46 45 44 43 42 42 39
67 66 66 68 71 73 75 77 76 72 71 72 74 75 75 75 74 73 72 68 64 65 68 69 68 67 67 67 66 66 67 69 71 72 73 74 76 77 78 77 76 73 72 73 74 75 74 73 72 72 71 70 70 70 70 70 71 74 76 78 80 82 84 86 87 89 90 90 89 82 69 57 51 48 46 45 44 44 44 44 44 42 41 40 37
74 72 69 68 71 76 78 79 77 74 72 72 72 73 74 76 76 75 73 70 67 66 69 70 69 68 69 69 67 67 69 70 71 72 72 74 76 76 76 76 73 71 72 73 74 73 72 70 69 68 67 67 67 67 68 69 71 73 75 78 80 81 83 85 87 88 88 88 85 74 59 51 49 47 44 43 43 42 42 43 43 42 39 38 35
79 78 75 71 71 75 79 81 80 77 74 70 69 70 72 73 74 73 72 71 69 68 69 71 70 69 69 70 70 71 71 70 70 71 72 74 74 74 74 73 71 70 72 73 73 71 69 67 66 65 65 65 65 66 67 69 71 73 75 76 79 81 83 84 86 87 86 85 79 65 52 49 49 46 43 43 42 41 41 42 43 42 39 37 34
85 83 81 76 73 75 78 80 81 80 79 77 76 76 77 77 76 75 75 76 75 72 70 69 67 66 69 72 74 74 72 70 70 71 72 73 72 72 72 72 70 70 72 72 70 68 66 64 63 63 62 63 63 65 67 69 71 73 74 76 78 80 83 84 85 85 83 80 71 57 48 48 48 44 42 42 41 40 40 40 42 42 39 37 35
88 85 82 78 75 75 77 80 82 83 84 84 84 85 84 83 82 82 83 84 84 81 77 71 67 67 71 74 74 73 72 71 70 70 70 70 70 70 70 70 69 70 70 69 66 64 63 61 60 60 60 61 62 64 67 68 70 72 74 76 78 80 82 84 83 81 78 72 63 53 47 47 47 43 42 42 41 40 39 39 40 41 40 38 36
89 86 83 81 80 81 82 84 86 89 91 92 94 94 93 90 89 90 92 92 90 88 84 78 71 67 70 73 73 72 70 68 67 66 67 68 68 68 68 67 68 68 67 64 63 61 60 58 58 58 58 60 62 64 66 68 70 71 73 75 78 79 81 81 80 77 72 64 57 51 48 46 44 42 42 41 41 40 40 39 39 40 40 39 37
94 93 92 92 93 94 93 93 94 96 99 101 103 103 102 100 99 98 98 97 93 88 84 78 70 66 69 71 71 69 67 65 64 65 66 68 68 67 66 65 64 63 62 60 59 57 56 55 55 56 57 59 61 64 66 68 69 71 73 75 77 79 79 78 75 71 65 58 53 50 48 44 41 40 41 40 41 41 40 40 39 38 38 39 37
104 104 105 105 106 106 105 105 105 106 107 108 110 110 108 107 106 105 102 98 92 86 82 78 72 68 68 69 68 67 65 64 64 65 67 68 67 65 64 62 60 59 57 56 55 54 53 53 53 55 56 59 61 63 65 67 69 71 74 75 77 78 77 74 70 65 59 54 51 50 48 43 39 39 39 39 40 41 40 40 38 36 36 38 36
115 115 115 114 114 115 114 114 113 113 114 116 118 117 113 111 111 109 104 96 87 82 79 77 71 67 67 68 68 67 65 63 64 66 67 67 65 62 60 58 56 55 54 54 52 51 51 51 52 54 56 58 60 62 64 66 69 71 74 75 76 76 73 68 63 58 53 50 50 51 49 43 39 38 39 38 39 39 39 38 37 34 34 36 35
123 122 121 120 120 120 121 120 119 118 119 120 120 119 116 113 112 109 102 92 84 80 77 72 66 64 65 66 66 66 66 65 66 66 65 63 61 58 56 54 53 52 51 50 48 48 48 49 51 53 55 58 60 61 63 66 68 71 73 74 74 72 67 62 56 52 50 49 50 51 49 45 40 38 39 39 39 39 39 37 34 31 32 34 33
122 121 120 119 119 119 118 117 114 111 110 109 110 111 111 109 107 102 95 87 81 76 69 64 61 62 64 65 66 67 67 65 64 63 62 59 56 54 52 51 50 49 47 46 45 45 47 48 50 53 55 57 59 61 63 66 68 70 72 72 71 67 62 56 51 48 48 48 49 50 49 45 40 38 38 39 39 39 38 36 32 30 30 31 31
107 107 106 105 104 102 100 99 97 95 94 95 97 98 98 97 94 90 84 78 71 64 59 59 62 64 65 65 65 64 62 61 60 60 58 55 52 51 50 48 46 44 43 42 43 44 46 48 50 53 55 57 59 61 63 66 67 69 70 69 66 62 56 51 47 46 46 47 48 49 47 44 41 39 37 37 38 38 37 33 30 28 27 28 29
87 88 88 87 86 85 84 83 83 82 82 83 83 83 82 80 77 73 70 65 59 56 56 59 63 64 63 61 59 59 58 58 58 55 53 51 50 49 47 44 42 41 40 41 42 44 46 48 51 53 55 57 59 61 64 65 67 67 67 65 61 56 51 46 44 44 44 45 46 47 45 44 42 40 38 36 36 36 35 31 28 25 25 26 26
73 73 74 74 74 73 72 72 71 71 71 70 69 68 65 62 59 57 56 55 55 57 59 60 60 59 58 57 57 56 56 55 53 51 49 48 47 45 43 41 39 39 39 40 42 44 46 49 51 53 55 57 59 61 63 64 65 65 64 61 57 52 47 43 41 42 42 43 44 45 43 42 42 41 39 37 36 34 32 28 26 24 23 24 23
64 64 65 66 65 64 64 63 63 62 61 59 57 55 53 50 50 51 52 52 54 56 58 57 57 56 56 55 54 54 53 51 50 48 47 46 44 41 39 37 37 37 38 40 42 44 47 49 51 53 55 57 59 61 62 63 63 63 61 58 54 49 44 40 39 40 41 41 42 41 40 39 39 38 37 37 36 33 29 26 24 23 22 22 22
56 57 57 57 56 54 54 54 54 54 52 49 47 46 45 46 47 49 51 51 53 55 56 56 56 55 54 52 51 50 49 48 46 45 44 43 40 37 36 35 35 36 38 40 42 44 46 48 51 53 56 57 59 61 62 62 62 60 58 55 51 46 42 39 38 39 39 40 40 39 36 35 35 35 35 35 35 32 28 25 23 22 21 21 21
49 49 48 47 46 45 45 46 48 48 46 43 42 42 43 45 47 49 51 53 54 55 55 54 52 50 49 48 47 45 44 44 43 43 41 39 36 35 34 34 35 36 38 40 42 44 46 48 51 54 56 57 59 61 61 61 59 57 55 52 48 44 40 38 38 38 39 39 39 38 35 33 33 32 32 33 33 30 27 24 22 21 20 20 20
45 44 42 41 40 40 40 41 41 39 37 37 40 43 45 47 49 51 53 54 53 50 47 45 44 44 43 42 41 41 41 41 41 40 38 35 34 33 33 33 35 37 39 41 42 44 46 48 51 53 55 57 58 59 59 58 56 54 52 49 46 42 39 38 38 38 38 38 38 37 35 32 31 30 30 31 31 29 26 24 21 19 18 19 21
41 40 39 38 37 37 36 36 36 35 34 35 39 42 43 44 45 47 48 48 45 42 40 39 39 38 38 38 39 39 40 39 38 36 34 32 31 31 32 34 36 37 39 41 43 44 47 49 51 52 54 56 57 58 57 55 52 50 48 46 43 40 39 38 38 38 38 38 38 37 35 32 29 28 27 28 28 27 25 23 21 18 16 17 21
31 31 32 32 33 33 33 33 34 33 31 32 35 37 39 40 42 44 43 41 39 37 35 34 34 35 36 37 38 38 38 37 35 33 31 30 30 31 33 35 36 38 39 41 43 45 47 49 51 52 54 55 56 56 54 52 49 47 46 44 41 39 38 37 38 38 38 37 37 36 34 32 30 27 26 26 26 25 23 23 22 19 17 16 20
23 25 27 29 30 30 31 31 30 29 29 30 32 34 36 38 40 40 39 36 34 32 32 32 33 35 36 37 37 36 35 33 31 29 29 29 30 32 34 35 37 38 40 42 44 46 48 50 51 52 54 55 55 54 52 49 46 45 43 42 39 37 36 37 37 38 37 36 35 34 32 31 29 27 25 25 24 23 22 22 23 21 18 16 19
20 21 22 24 26 27 27 26 26 27 27 28 29 32 34 35 35 34 32 31 30 30 31 33 34 35 36 36 35 33 31 29 28 28 29 30 31 33 35 36 37 39 41 43 45 47 48 50 51 53 54 55 55 53 49 46 44 43 42 40 38 36 35 35 36 37 36 35 34 33 31 30 28 26 24 24 23 22 22 22 22 20 18 17 19
20 20 19 20 22 24 23 22 23 24 25 26 27 29 30 30 29 28 28 28 29 30 32 33 34 35 35 34 32 30 28 27 27 28 30 31 33 34 35 36 38 39 41 44 46 47 49 50 51 53 54 55 54 51 47 44 43 42 41 39 37 36 35 34 34 35 35 35 34 33 31 29 28 26 24 23 21 20 21 22 21 19 18 17 19
Wind_Direction
276 277 278 280 282 284 285 287 288 289 289 289 288 289 288 287 286 285 285 285 284 284 284 284 285 285 286 286 287 287 287 286 284 283 282 282 281 281 281 281 281 282 283 284 285 286 287 287 288 289 290 290 291 292 293 294 293 293 292 291 291 291 291 292 293 294 294 295 295 296 297 297 297 298 299 300 301 302 302 303 303 303 301 299 297
276 277 278 280 281 283 285 288 289 288 288 287 287 287 287 286 285 285 285 286 285 284 284 283 283 283 284 284 284 284 284 283 283 283 283 283 283 282 282 282 283 283 284 285 286 287 288 288 289 290 291 293 293 294 294 294 293 292 291 291 292 294 294 295 296 297 297 296 296 297 298 298 299 300 301 303 303 303 304 304 304 302 301 299 297
274 275 277 279 281 283 286 288 288 287 286 286 286 286 286 285 285 284 284 284 284 283 282 282 282 282 283 283 283 283 283 283 283 284 285 285 285 284 284 283 284 284 285 285 287 288 289 290 291 292 294 294 294 294 293 293 292 292 293 294 295 296 297 297 297 297 297 297 298 298 299 300 301 303 304 305 305 305 305 305 304 303 301 299 297
272 274 276 278 280 283 285 285 285 284 285 285 285 285 284 284 283 282 282 282 281 281 281 281 281 282 282 283 283 283 284 284 285 286 286 286 285 285 284 284 284 284 285 287 289 290 292 293 293 293 294 293 293 293 293 293 293 294 295 297 298 298 298 297 296 296 297 298 299 301 301 302 304 306 307 308 307 306 306 306 304 303 301 299 297
273 275 277 279 280 282 282 281 282 283 283 283 283 282 282 281 281 280 280 280 280 280 280 281 281 282 283 284 284 285 286 287 287 287 287 286 285 284 284 284 284 285 286 289 291 292 294 294 292 291 292 293 293 292 292 293 295 297 298 299 299 299 298 297 297 297 298 300 301 303 304 305 306 309 310 309 308 307 306 306 305 303 301 299 297
274 277 279 280 281 280 280 280 281 282 281 281 280 280 280 279 279 279 279 279 279 279 280 281 282 283 285 286 287 288 288 288 288 287 286 285 284 284 284 284 285 286 287 289 292 295 295 291 288 288 292 293 293 292 293 295 297 299 300 300 300 299 299 298 297 298 299 301 302 304 305 307 309 310 311 309 308 308 307 305 305 303 301 300 299
276 279 281 281 281 281 281 282 282 281 280 279 279 278 278 277 278 278 278 278 279 279 280 281 283 285 287 289 290 290 291 290 289 288 286 286 286 286 286 286 286 287 288 291 294 294 292 289 288 290 293 294 294 294 295 297 298 299 300 300 300 299 298 297 296 297 299 301 303 304 306 309 311 311 311 310 310 309 308 306 306 305 303 302 300
277 279 280 281 281 282 282 282 282 281 280 279 278 277 277 277 277 278 278 279 279 280 281 283 285 287 289 291 291 292 292 291 289 288 288 289 289 288 288 287 288 290 292 293 292 291 290 291 292 293 293 295 296 296 297 298 299 299 300 299 299 298 297 296 296 298 299 301 303 305 308 310 312 312 312 311 311 310 309 307 307 307 305 303 296
277 279 279 281 282 282 282 281 281 279 278 278 277 277 277 277 278 278 279 279 280 282 284 286 288 289 291 292 292 292 292 290 289 289 289 289 289 289 289 290 292 293 292 291 290 291 293 294 293 293 294 295 296 296 297 298 299 299 299 299 299 299 298 298 298 299 301 302 305 307 309 312 313 313 313 313 311 310 309 308 308 308 306 300 289
277 278 280 281 281 280 280 279 278 277 277 277 277 277 277 277 277 278 279 281 282 284 286 288 290 291 291 291 291 291 290 289 288 288 288 288 288 288 291 293 294 292 291 291 292 294 295 294 293 294 294 294 295 296 297 298 299 299 299 300 299 299 299 299 300 301 303 304 306 308 311 313 314 314 314 313 312 310 310 309 309 309 304 293 281
278 280 281 280 280 280 279 278 277 277 277 277 277 276 276 276 277 279 281 283 285 287 288 289 290 290 290 290 290 290 289 288 288 288 288 288 289 291 293 293 292 291 291 293 294 294 293 293 293 293 294 294 296 297 297 298 299 299 299 300 299 299 299 300 302 303 304 305 308 310 313 313 314 315 314 313 312 311 311 310 310 308 300 285 276
281 281 280 280 280 280 279 279 279 279 278 277 276 276 276 277 278 280 282 284 286 288 289 289 289 289 289 289 290 290 289 289 289 288 288 288 290 293 293 291 291 292 293 293 293 293 293 293 293 294 294 296 296 297 298 298 299 299 299 299 298 299 301 303 304 304 305 306 309 312 313 313 314 315 315 313 312 312 312 311 310 306 295 280 273
284 282 281 281 281 281 281 281 280 278 276 275 275 275 276 277 279 281 283 285 287 288 287 287 287 288 288 289 290 290 289 289 289 289 289 290 291 291 290 290 290 291 293 293 293 293 294 294 295 295 296 296 296 297 298 299 299 300 299 298 299 301 302 304 304 305 306 308 310 313 314 314 315 316 315 313 313 312 312 310 307 301 291 278 272
283 282 281 281 281 281 281 280 277 275 274 274 274 275 276 278 280 283 284 286 286 285 285 286 286 287 289 289 289 289 288 288 289 290 291 292 291 291 290 290 291 293 294 295 295 295 296 296 296 296 296 297 297 298 299 300 300 300 299 299 301 302 303 304 304 306 308 310 312 314 315 315 315 316 315 313 313 312 311 308 304 296 288 280 274
279 279 279 279 280 280 278 275 273 272 272 272 273 275 278 280 282 283 283 283 283 283 284 286 287 289 290 290 290 289 289 288 289 290 291 291 291 292 292 293 294 296 296 297 297 297 297 297 297 297 297 298 298 299 300 300 300 300 301 301 302 303 304 304 305 307 309 311 313 314 314 315 316 316 315 314 313 312 309 304 299 293 288 284 279
278 278 278 278 278 277 274 272 271 270 270 271 274 277 280 281 281 281 280 280 280 282 285 287 289 291 292 292 292 290 289 289 289 289 289 290 291 293 294 294 295 296 296 297 298 298 298 298 299 298 299 299 300 300 300 301 301 302 302 302 303 303 304 304 306 308 310 312 313 314 315 316 317 316 316 314 313 311 306 301 297 291 287 287 286
278 279 278 277 276 273 271 270 269 268 270 272 276 279 281 280 278 278 277 278 279 281 284 288 291 293 295 295 294 292 291 291 290 289 288 289 291 292 293 294 296 296 297 298 299 299 300 300 300 299 300 300 300 300 300 301 302 302 303 303 303 303 304 305 307 309 311 312 313 314 315 317 317 316 315 314 312 308 301 298 296 292 291 292 291
281 280 278 276 274 272 270 269 268 269 271 274 279 280 279 276 275 274 275 276 278 280 283 286 289 293 296 298 297 295 293 292 290 290 290 291 292 294 295 296 297 298 299 300 301 301 301 301 300 300 301 301 301 301 301 301 302 303 303 303 303 303 304 305 307 309 311 312 313 314 316 317 317 316 314 313 309 303 297 297 297 296 296 296 294
279 278 277 276 274 272 270 268 268 269 272 277 280 278 274 272 271 272 274 276 278 280 282 284 288 293 298 299 297 296 294 292 291 290 292 293 295 297 298 299 300 300 301 302 303 303 303 302 302 301 302 301 301 301 301 301 302 302 302 302 303 303 304 306 308 309 310 311 313 314 316 317 316 315 314 311 306 299 296 298 299 298 298 296 294
276 275 275 273 272 270 268 267 267 269 274 279 279 274 269 269 269 271 273 276 278 279 282 285 289 295 300 300 297 296 295 293 291 291 294 297 298 300 301 301 301 301 301 302 304 305 304 303 302 302 302 301 301 300 300 300 301 301 301 302 302 303 305 307 309 310 311 312 313 315 317 317 316 315 313 308 302 298 297 299 300 299 298 296 294
272 271 271 270 268 267 266 266 269 273 276 279 276 270 265 265 267 269 272 274 276 279 283 287 291 297 301 301 298 297 296 293 291 292 295 299 301 303 305 304 302 300 300 302 303 304 304 303 302 301 301 300 300 299 299 299 299 299 300 301 303 304 306 308 309 310 311 313 314 316 318 318 317 315 311 304 299 298 299 299 300 299 298 296 294
268 268 268 268 268 269 270 271 273 276 278 279 274 266 262 263 265 267 270 272 275 280 283 287 291 297 301 301 299 299 298 294 291 290 292 296 300 304 307 305 302 301 301 302 302 303 303 302 300 300 300 300 300 298 297 297 298 299 300 302 304 306 308 309 310 311 313 314 316 318 318 318 317 315 308 300 298 298 298 298 298 298 297 296 294
267 267 268 268 269 271 273 275 276 278 280 278 271 263 259 261 264 265 268 270 275 280 284 288 292 297 300 301 300 300 299 297 295 293 294 297 300 303 305 305 304 303 303 302 302 301 301 300 299 299 300 300 299 297 296 296 297 299 301 303 306 307 308 310 311 312 314 316 318 319 319 318 317 313 304 298 298 298 297 298 297 296 295 295 294
273 273 274 274 274 274 274 274 276 278 278 275 269 262 259 262 263 264 266 268 273 278 283 288 292 295 298 300 300 300 299 299 299 299 299 300 301 302 303 303 304 304 303 302 301 300 299 298 297 298 299 299 298 296 295 296 297 300 303 305 307 308 309 310 312 313 316 317 319 319 319 318 316 311 301 297 298 297 297 297 295 294 294 293 294
275 276 277 276 275 274 274 274 275 275 274 271 266 262 261 262 262 262 264 268 273 277 281 286 290 293 296 298 299 300 300 301 301 301 301 301 301 302 302 302 303 304 303 301 299 298 297 297 297 297 297 297 296 295 295 296 299 302 305 306 307 308 309 311 313 315 317 318 319 319 318 317 314 307 299 297 297 296 296 295 293 292 292 292 294
272 274 275 275 275 276 276 275 274 271 268 266 263 260 260 261 260 261 264 268 271 275 279 284 289 292 294 295 297 299 300 300 301 302 302 302 302 301 301 301 301 303 302 300 298 297 297 296 296 296 296 295 294 294 295 297 300 304 306 307 308 309 311 312 314 316 318 319 320 319 318 316 312 303 298 298 297 296 296 293 290 290 290 291 293
270 274 275 276 277 276 274 271 268 264 261 260 259 258 258 259 260 262 265 268 272 275 279 283 288 291 292 294 295 297 298 299 300 301 301 301 301 301 300 300 300 301 300 298 297 297 296 296 295 294 294 293 293 294 296 298 302 305 307 308 309 310 312 314 316 318 319 320 320 319 317 314 309 301 298 298 297 297 296 291 288 288 288 290 292
268 273 276 276 276 274 270 266 262 257 255 255 256 256 258 259 261 262 265 269 274 278 280 283 288 291 292 293 294 295 297 299 299 299 299 300 300 301 300 300 300 300 298 297 296 296 295 294 293 292 292 292 292 294 297 301 304 306 307 308 310 312 314 316 318 319 319 320 319 318 315 311 306 301 298 297 296 296 294 291 288 287 288 290 291
263 268 273 274 273 271 269 265 260 255 254 255 256 257 258 260 261 262 264 268 274 278 281 285 289 291 292 292 293 294 296 298 297 296 297 298 299 300 299 299 299 298 296 295 295 294 292 291 291 290 290 291 292 295 299 302 304 306 307 309 311 313 315 317 318 319 319 319 319 317 313 307 303 300 297 296 296 295 293 290 287 286 287 290 291
261 265 270 273 271 268 267 265 261 256 254 255 257 257 258 259 260 262 265 269 274 278 282 286 290 292 292 291 291 294 296 295 294 293 294 296 297 297 297 298 298 297 295 294 292 291 290 289 288 288 289 290 293 296 300 302 304 306 308 310 312 314 316 317 318 319 319 318 318 315 309 304 302 299 296 295 295 294 293 290 287 287 288 290 290
260 262 267 271 270 267 266 265 263 259 257 257 260 262 263 263 264 265 269 273 278 281 284 289 293 293 292 290 291 293 294 293 291 291 292 293 295 295 295 296 297 295 293 291 289 288 287 287 287 287 289 292 295 298 300 303 304 306 308 311 313 315 317 318 318 318 318 318 316 312 306 304 302 299 296 296 295 294 292 290 288 287 287 288 289
259 260 263 267 269 268 267 266 265 262 260 260 262 266 269 269 270 271 274 279 282 283 287 291 292 289 288 289 290 291 291 290 288 289 290 291 292 293 294 295 295 292 289 287 286 285 285 285 286 288 291 294 297 300 302 304 306 307 309 312 314 316 317 318 318 318 318 317 314 310 306 305 303 299 296 296 295 293 292 291 289 288 287 287 288
259 261 263 265 266 268 269 270 270 269 267 265 264 266 269 271 273 274 277 281 283 285 288 290 288 282 282 285 287 287 287 286 286 286 288 289 291 293 294 293 291 287 285 284 283 283 283 285 287 289 292 296 299 302 304 306 307 309 311 314 316 317 318 318 318 318 317 315 312 308 307 306 303 299 296 296 295 293 292 292 290 289 287 285 285
259 261 263 265 266 268 270 271 272 273 274 273 271 270 271 272 273 275 278 281 284 286 288 290 288 282 278 279 282 283 284 283 282 283 285 288 291 292 291 288 285 282 281 281 281 281 283 285 288 291 295 298 301 304 306 307 309 311 314 316 317 318 318 317 318 317 316 313 310 308 308 308 303 298 296 296 295 294 294 294 292 289 286 283 282
258 261 263 265 267 269 269 270 271 273 274 275 275 274 273 273 274 276 278 281 284 286 287 288 286 278 274 276 278 278 279 279 279 281 285 289 291 289 285 282 279 278 278 279 280 281 284 286 290 294 297 301 303 305 307 310 312 314 316 317 318 318 318 317 317 316 314 311 308 308 309 308 303 298 296 295 295 295 296 296 294 290 286 282 279
260 263 264 265 266 268 269 270 272 273 274 274 274 274 273 272 273 276 278 280 283 285 286 286 283 275 271 273 275 274 275 276 278 282 286 288 287 283 279 277 276 276 276 278 279 281 284 288 292 297 300 303 305 307 310 312 314 316 317 318 319 318 317 317 316 314 311 309 308 309 311 309 303 298 295 293 294 296 297 297 295 291 287 282 277
263 265 266 267 267 269 270 271 272 273 273 273 274 273 271 270 271 274 277 280 282 283 284 284 280 271 267 269 270 271 272 274 278 283 285 283 280 277 275 274 274 275 276 278 279 282 287 291 295 299 302 304 307 310 313 315 316 317 319 319 319 318 317 316 315 312 310 309 309 310 312 309 305 301 297 294 295 297 297 297 295 291 288 282 276
266 267 269 270 270 271 272 273 273 273 272 272 272 270 269 268 269 272 276 279 280 281 282 279 272 266 265 267 266 266 270 274 278 280 279 276 274 273 272 272 273 274 276 278 281 286 290 294 298 301 304 306 309 312 315 316 317 318 319 319 318 318 317 315 313 310 309 309 310 311 311 309 306 303 299 297 298 299 299 299 296 292 288 282 276
267 268 270 270 271 271 271 271 271 271 270 269 267 266 266 267 268 271 274 277 278 279 277 271 263 260 261 261 261 265 270 274 274 273 272 271 271 270 269 270 271 273 276 280 284 289 292 296 300 303 306 309 312 314 316 317 318 319 319 318 318 317 316 313 310 308 308 309 311 312 311 308 305 304 302 300 300 300 300 300 297 293 288 280 277
267 268 268 268 268 269 268 268 267 267 266 265 264 265 266 267 269 270 272 273 273 270 264 258 255 255 257 259 262 266 269 270 268 268 268 268 268 267 267 268 270 273 278 282 287 291 295 299 302 305 308 311 314 316 317 318 319 320 319 318 318 317 315 311 308 307 308 309 311 312 310 307 305 305 304 302 301 301 301 300 298 295 288 280 278
265 265 266 266 266 266 265 265 264 264 263 263 263 264 265 266 267 267 266 264 260 255 251 250 252 255 258 261 264 264 264 264 265 265 266 265 264 263 264 266 270 275 280 284 289 293 298 301 304 307 310 313 316 317 318 319 320 320 319 318 317 316 313 308 306 307 308 310 312 312 310 306 305 305 305 302 301 302 302 300 300 297 288 280 278
262 262 262 263 263 263 263 263 262 262 262 261 261 261 261 260 258 256 255 251 246 243 244 247 250 254 257 260 260 260 261 263 264 264 263 261 260 260 262 266 271 277 282 287 291 296 299 302 306 309 312 315 317 318 319 320 321 320 319 317 316 315 311 307 305 307 309 311 312 311 308 305 303 304 304 303 303 303 302 300 302 298 287 279 274
258 259 259 260 261 261 261 261 260 259 259 257 256 253 250 246 243 243 243 242 240 240 243 246 248 251 254 255 256 258 260 261 261 260 258 256 256 259 263 268 273 279 284 289 294 298 301 304 308 311 314 317 318 319 320 321 321 320 318 317 316 314 310 307 306 307 309 310 311 310 306 303 301 302 303 302 303 303 302 301 303 298 285 276 267
259 259 260 261 262 263 262 260 258 256 254 250 246 243 239 236 235 237 239 239 239 241 243 245 247 249 251 253 254 255 256 257 256 254 253 253 256 260 265 270 276 282 287 291 295 299 302 306 310 313 316 318 319 320 321 321 321 320 318 317 316 313 310 307 308 309 309 310 311 310 307 303 301 301 301 301 302 303 302 302 303 297 283 270 258
264 265 265 266 266 264 261 257 254 251 246 240 234 233 233 235 236 237 238 239 240 242 244 246 248 250 251 252 252 252 251 251 250 249 250 252 256 261 267 273 279 284 288 292 296 300 304 307 311 315 317 319 321 322 322 322 320 319 318 316 315 313 310 309 310 311 312 312 313 312 309 305 303 302 301 300 301 301 300 300 299 292 278 264 250
267 267 267 266 263 258 253 251 248 242 236 233 231 232 236 240 243 242 240 239 241 244 245 245 246 247 247 247 247 246 246 246 245 246 248 252 257 264 270 275 281 285 290 294 298 301 305 309 312 315 318 320 322 322 322 321 319 318 317 316 314 312 311 311 313 314 314 314 314 313 310 308 305 303 301 300 299 299 298 298 295 289 275 258 243
265 263 260 257 253 249 247 244 237 230 231 238 240 240 241 246 247 244 240 238 239 241 240 240 241 241 241 241 241 241 241 241 242 244 249 254 260 267 272 278 282 287 291 295 299 303 306 309 313 315 318 321 322 323 322 320 318 317 316 315 313 311 311 313 315 316 316 315 315 314 312 309 307 305 302 299 297 295 294 293 292 290 278 256 237
256 254 253 252 250 247 243 234 226 225 235 246 248 246 247 248 246 242 237 233 233 234 234 234 236 236 237 237 236 235 236 238 241 246 251 257 264 270 275 280 284 289 293 297 301 304 307 310 313 316 319 322 323 323 321 319 317 316 315 314 312 310 311 313 316 317 316 315 315 314 313 311 309 307 304 300 296 292 289 287 287 288 281 258 235
249 252 256 257 252 243 234 228 228 236 245 250 250 249 248 245 240 235 230 226 226 227 227 228 230 231 231 231 231 232 235 239 243 249 255 261 267 273 277 282 287 291 295 299 302 305 308 311 314 317 320 322 323 322 320 318 316 315 314 313 311 308 310 313 316 317 316 315 315 315 314 312 310 308 304 301 296 290 284 283 284 285 281 264 239
246 250 255 251 240 229 225 231 242 250 254 253 250 246 241 236 232 227 222 219 220 221 221 223 225 226 227 228 229 232 237 242 247 253 259 265 270 275 280 284 289 293 297 300 302 305 309 312 315 318 321 323 323 321 319 316 315 314 314 313 310 307 308 312 315 316 315 315 316 316 316 313 311 308 303 300 297 289 281 280 283 284 281 270 248
240 242 244 238 230 228 233 244 253 258 259 254 245 235 227 221 217 214 212 212 215 216 218 221 222 223 225 227 230 235 241 246 251 257 262 268 273 278 282 287 291 294 297 300 303 306 309 312 315 318 321 323 323 320 317 315 315 314 314 313 310 306 306 309 312 315 316 316 316 318 318 315 312 308 302 297 294 286 278 279 283 284 281 273 254
Height
5657 5656 5655 5654 5653 5652 5652 5651 5649 5648 5646 5645 5644 5644 5643 5641 5640 5639 5638 5637 5635 5634 5632 5630 5628 5627 5625 5623 5621 5619 5617 5615 5613 5610 5607 5605 5603 5600 5598 5597 5594 5592 5590 5587 5586 5585 5584 5581 5578 5576 5574 5572 5569 5565 5562 5560 5559 5558 5555 5553 5551 5546 5544 5543 5544 5553 5562 5558 5552 5552 5543 5537 5540 5531 5518 5517 5513 5504 5500 5496 5488 5483 5479 5473 5468
5649 5648 5647 5646 5645 5644 5643 5642 5640 5638 5637 5636 5635 5634 5633 5632 5631 5630 5629 5628 5627 5625 5623 5621 5619 5617 5615 5613 5611 5609 5607 5605 5603 5600 5598 5596 5594 5591 5589 5588 5585 5583 5581 5578 5577 5575 5574 5572 5569 5567 5565 5562 5558 5555 5553 5551 5549 5548 5546 5542 5540 5535 5530 5529 5528 5530 5541 5546 5541 5539 5534 5523 5522 5520 5507 5501 5498 5488 5482 5480 5473 5465 5460 5454 5448
5641 5640 5639 5638 5637 5637 5635 5634 5631 5630 5628 5627 5626 5625 5624 5624 5623 5622 5621 5619 5618 5616 5614 5612 5610 5608 5606 5603 5602 5599 5597 5595 5593 5591 5589 5587 5585 5583 5581 5579 5576 5574 5572 5570 5568 5566 5564 5562 5559 5557 5555 5551 5548 5545 5544 5543 5541 5539 5537 5533 5528 5525 5519 5515 5514 5514 5519 5528 5528 5524 5522 5514 5507 5503 5495 5487 5483 5473 5464 5461 5456 5450 5443 5435 5428
5634 5633 5633 5631 5631 5630 5629 5626 5624 5622 5620 5618 5617 5617 5616 5615 5614 5613 5612 5610 5609 5607 5604 5602 5600 5598 5596 5594 5592 5590 5588 5586 5584 5582 5580 5578 5576 5574 5572 5570 5568 5565 5563 5561 5559 5557 5555 5553 5550 5547 5545 5542 5539 5537 5535 5534 5532 5530 5527 5523 5518 5514 5510 5503 5501 5500 5500 5507 5512 5508 5504 5500 5494 5488 5479 5472 5468 5459 5450 5443 5436 5431 5427 5418 5408
5625 5625 5625 5624 5623 5623 5621 5619 5616 5614 5612 5610 5609 5609 5608 5606 5605 5604 5602 5601 5599 5597 5595 5593 5590 5588 5586 5584 5582 5580 5579 5577 5575 5573 5571 5569 5567 5565 5562 5561 5558 5556 5554 5552 5549 5547 5545 5543 5541 5538 5536 5533 5530 5528 5527 5525 5523 5521 5517 5513 5508 5503 5500 5494 5489 5486 5485 5487 5492 5492 5488 5483 5479 5474 5463 5454 5452 5446 5437 5431 5421 5410 5406 5402 5393
5616 5616 5616 5615 5614 5614 5612 5611 5609 5607 5604 5602 5601 5600 5599 5597 5595 5594 5592 5591 5589 5588 5585 5583 5580 5578 5576 5574 5572 5571 5569 5567 5566 5564 5562 5560 5558 5556 5553 5551 5549 5547 5545 5542 5540 5538 5536 5534 5532 5529 5526 5524 5522 5519 5518 5516 5513 5511 5507 5502 5499 5494 5490 5485 5479 5475 5473 5472 5473 5475 5473 5467 5462 5459 5449 5437 5433 5429 5419 5415 5411 5398 5385 5379 5374
5608 5608 5607 5605 5605 5604 5603 5601 5600 5598 5595 5594 5592 5591 5589 5587 5586 5584 5582 5581 5580 5578 5575 5573 5570 5568 5566 5565 5563 5561 5560 5558 5556 5555 5554 5552 5549 5547 5544 5542 5540 5538 5535 5533 5531 5529 5528 5525 5522 5520 5516 5514 5513 5511 5509 5507 5504 5501 5497 5492 5489 5485 5480 5475 5470 5465 5462 5461 5459 5457 5455 5451 5445 5440 5434 5422 5416 5411 5399 5388 5390 5387 5372 5359 5353
5600 5599 5598 5597 5596 5595 5594 5592 5590 5588 5586 5584 5583 5581 5579 5577 5576 5574 5572 5571 5569 5567 5565 5563 5561 5559 5557 5555 5554 5552 5551 5549 5548 5547 5545 5543 5541 5538 5536 5533 5531 5529 5526 5524 5522 5520 5518 5516 5512 5510 5507 5505 5503 5501 5498 5496 5494 5491 5487 5482 5479 5475 5471 5466 5461 5456 5452 5449 5447 5442 5437 5435 5428 5421 5415 5406 5396 5392 5383 5368 5363 5365 5358 5345 5337
5592 5590 5589 5588 5587 5585 5584 5582 5581 5579 5577 5575 5573 5571 5570 5568 5566 5564 5562 5561 5559 5557 5555 5553 5551 5549 5548 5546 5545 5543 5542 5541 5539 5538 5536 5534 5532 5529 5527 5525 5522 5520 5518 5515 5513 5510 5508 5506 5503 5500 5498 5495 5493 5491 5488 5485 5483 5481 5477 5472 5468 5464 5460 5456 5450 5444 5440 5436 5433 5428 5421 5418 5412 5403 5396 5389 5379 5371 5366 5356 5346 5341 5336 5331 5328
5582 5580 5580 5579 5577 5576 5574 5573 5571 5569 5567 5565 5563 5561 5560 5558 5556 5555 5553 5551 5550 5548 5546 5544 5542 5540 5539 5537 5536 5535 5533 5532 5531 5530 5527 5525 5523 5521 5518 5516 5514 5511 5509 5506 5503 5501 5498 5496 5494 5491 5488 5486 5483 5481 5478 5475 5472 5470 5466 5461 5456 5451 5448 5444 5438 5431 5425 5421 5419 5415 5407 5402 5398 5388 5378 5371 5363 5354 5347 5340 5333 5326 5319 5315 5317
5572 5571 5570 5569 5567 5566 5564 5562 5561 5559 5557 5555 5554 5552 5550 5548 5547 5545 5544 5542 5540 5538 5537 5535 5533 5532 5530 5529 5527 5526 5524 5523 5522 5521 5519 5516 5514 5512 5510 5508 5505 5502 5500 5497 5494 5491 5489 5486 5485 5482 5479 5476 5474 5471 5468 5466 5462 5459 5455 5451 5445 5440 5435 5431 5427 5420 5412 5408 5406 5402 5394 5386 5383 5377 5364 5352 5345 5338 5330 5321 5315 5312 5306 5303 5306
5561 5560 5559 5558 5556 5555 5553 5552 5550 5549 5547 5546 5544 5543 5541 5540 5538 5537 5535 5533 5532 5530 5528 5527 5525 5523 5521 5520 5518 5517 5515 5514 5513 5511 5510 5508 5506 5504 5501 5499 5497 5494 5491 5489 5486 5482 5480 5477 5475 5473 5470 5467 5464 5462 5459 5457 5453 5450 5446 5441 5435 5430 5423 5417 5413 5408 5402 5398 5395 5392 5384 5372 5366 5363 5352 5336 5328 5322 5314 5306 5299 5295 5294 5294 5296
5550 5549 5548 5547 5546 5544 5543 5542 5541 5539 5538 5537 5535 5534 5532 5531 5530 5528 5527 5525 5524 5522 5520 5518 5516 5514 5513 5511 5509 5508 5507 5506 5505 5502 5501 5499 5497 5496 5494 5490 5488 5485 5482 5480 5478 5474 5471 5469 5467 5464 5461 5457 5454 5452 5450 5447 5444 5441 5437 5432 5426 5420 5414 5407 5401 5395 5389 5384 5379 5378 5373 5359 5349 5347 5338 5321 5311 5306 5299 5293 5287 5281 5281 5284 5286
5540 5539 5539 5537 5536 5535 5534 5533 5532 5530 5529 5528 5526 5525 5524 5523 5521 5520 5519 5517 5516 5514 5512 5510 5508 5506 5504 5503 5501 5500 5499 5498 5496 5494 5492 5491 5489 5488 5486 5483 5480 5477 5474 5472 5469 5466 5462 5460 5458 5455 5451 5448 5444 5441 5439 5437 5434 5431 5427 5422 5418 5412 5405 5399 5392 5386 5379 5370 5363 5359 5357 5348 5336 5332 5326 5311 5297 5290 5283 5279 5275 5270 5269 5273 5276
5530 5530 5529 5528 5527 5526 5525 5524 5522 5521 5520 5519 5518 5517 5516 5515 5514 5512 5511 5509 5507 5505 5503 5501 5500 5498 5496 5495 5493 5492 5491 5490 5488 5486 5484 5482 5481 5479 5477 5475 5472 5469 5466 5463 5460 5457 5453 5450 5448 5445 5441 5438 5434 5430 5428 5426 5424 5421 5417 5413 5408 5403 5397 5389 5382 5376 5369 5360 5352 5345 5340 5335 5325 5317 5313 5301 5287 5278 5270 5266 5265 5260 5257 5260 5265
5520 5519 5518 5517 5517 5517 5515 5514 5513 5512 5511 5510 5510 5509 5508 5507 5505 5503 5502 5500 5498 5497 5495 5493 5492 5490 5488 5487 5485 5484 5483 5482 5479 5477 5476 5474 5472 5470 5468 5465 5463 5460 5457 5454 5451 5448 5444 5441 5438 5435 5432 5428 5424 5420 5417 5414 5412 5410 5406 5403 5398 5394 5388 5381 5373 5366 5358 5349 5343 5333 5325 5319 5311 5301 5294 5284 5273 5264 5257 5255 5257 5251 5245 5247 5252
5510 5508 5507 5507 5507 5507 5505 5504 5504 5503 5502 5501 5501 5500 5498 5497 5496 5494 5492 5490 5489 5488 5487 5485 5483 5482 5480 5478 5477 5476 5475 5473 5471 5469 5467 5465 5463 5461 5458 5456 5453 5450 5447 5445 5442 5438 5434 5431 5428 5424 5421 5418 5414 5410 5406 5403 5401 5398 5395 5392 5389 5384 5379 5372 5365 5358 5349 5340 5333 5324 5314 5307 5298 5289 5280 5270 5260 5250 5241 5242 5247 5240 5233 5235 5238
5499 5497 5497 5497 5497 5497 5496 5495 5494 5493 5492 5492 5491 5490 5489 5487 5485 5483 5482 5481 5480 5479 5478 5477 5475 5474 5472 5470 5468 5467 5466 5464 5462 5460 5458 5456 5454 5451 5449 5446 5443 5441 5438 5435 5432 5429 5425 5422 5418 5414 5411 5408 5404 5400 5396 5392 5390 5387 5383 5381 5379 5375 5369 5363 5357 5351 5343 5335 5326 5317 5307 5298 5288 5279 5271 5260 5251 5241 5231 5231 5235 5228 5222 5223 5224
5487 5485 5486 5487 5487 5487 5486 5485 5484 5483 5482 5482 5481 5480 5478 5476 5475 5473 5473 5472 5471 5470 5469 5468 5467 5465 5463 5461 5459 5458 5457 5454 5452 5451 5449 5447 5445 5442 5439 5437 5434 5431 5429 5426 5423 5420 5416 5413 5409 5405 5402 5398 5394 5390 5386 5381 5378 5375 5372 5368 5367 5363 5358 5353 5347 5340 5335 5329 5320 5311 5302 5292 5280 5269 5260 5251 5242 5233 5224 5222 5222 5217 5214 5214 5213
5475 5475 5476 5476 5476 5476 5475 5475 5474 5473 5472 5472 5471 5470 5468 5466 5464 5464 5464 5463 5462 5461 5460 5459 5458 5456 5454 5452 5450 5448 5447 5445 5443 5442 5440 5437 5436 5433 5430 5428 5425 5423 5420 5418 5415 5412 5408 5404 5400 5396 5393 5389 5384 5380 5376 5371 5367 5364 5360 5356 5353 5350 5347 5343 5337 5329 5322 5316 5309 5302 5294 5285 5273 5261 5250 5241 5234 5227 5219 5214 5212 5208 5205 5205 5204
5465 5465 5466 5466 5466 5466 5465 5465 5464 5463 5463 5463 5462 5460 5458 5456 5454 5454 5454 5454 5453 5452 5451 5450 5449 5447 5445 5443 5441 5439 5438 5437 5435 5433 5431 5429 5427 5425 5422 5419 5417 5415 5412 5409 5407 5403 5399 5396 5392 5388 5384 5380 5376 5371 5367 5362 5358 5354 5349 5345 5341 5337 5333 5330 5325 5319 5311 5304 5296 5289 5281 5273 5264 5252 5240 5232 5225 5219 5214 5209 5205 5200 5197 5195 5194
5456 5456 5455 5456 5456 5456 5456 5455 5454 5453 5453 5453 5452 5449 5446 5445 5445 5445 5444 5444 5443 5443 5442 5440 5439 5438 5436 5434 5432 5431 5430 5429 5427 5425 5423 5420 5418 5416 5414 5412 5410 5407 5404 5401 5398 5394 5390 5387 5383 5379 5376 5372 5367 5362 5358 5353 5349 5345 5340 5335 5330 5325 5320 5315 5311 5305 5299 5291 5283 5277 5268 5260 5252 5242 5231 5223 5218 5212 5207 5203 5198 5194 5191 5188 5185
5445 5445 5445 5445 5446 5446 5446 5445 5444 5443 5443 5443 5441 5438 5436 5435 5435 5435 5435 5434 5434 5433 5432 5430 5429 5428 5427 5425 5423 5422 5421 5420 5419 5417 5415 5412 5409 5407 5406 5404 5401 5399 5396 5393 5389 5385 5381 5377 5374 5371 5367 5363 5358 5353 5348 5344 5340 5336 5330 5325 5319 5313 5308 5303 5297 5291 5285 5277 5270 5263 5255 5246 5238 5230 5221 5215 5210 5205 5201 5197 5192 5188 5185 5182 5179
5434 5434 5434 5434 5435 5436 5435 5434 5433 5433 5433 5432 5430 5428 5427 5426 5426 5425 5425 5424 5424 5423 5422 5421 5420 5419 5417 5416 5415 5413 5412 5411 5410 5408 5406 5403 5401 5398 5396 5394 5392 5390 5387 5383 5379 5375 5372 5368 5365 5362 5358 5353 5349 5344 5339 5335 5331 5326 5321 5315 5309 5303 5297 5292 5286 5279 5273 5266 5258 5251 5243 5233 5225 5218 5212 5207 5203 5199 5194 5190 5187 5183 5179 5177 5174
5424 5423 5423 5424 5425 5425 5425 5424 5423 5423 5422 5420 5419 5419 5418 5417 5416 5415 5415 5414 5414 5413 5412 5411 5410 5409 5408 5407 5405 5404 5402 5401 5399 5398 5396 5394 5392 5389 5387 5384 5382 5380 5377 5373 5369 5365 5362 5359 5356 5352 5348 5344 5340 5335 5331 5326 5321 5316 5311 5305 5300 5293 5287 5281 5274 5268 5261 5254 5247 5239 5231 5223 5215 5208 5203 5199 5195 5192 5188 5184 5181 5178 5174 5171 5169
5415 5414 5414 5414 5415 5415 5414 5414 5413 5412 5411 5409 5408 5408 5407 5407 5406 5405 5404 5404 5403 5402 5402 5401 5400 5399 5398 5397 5396 5395 5393 5391 5390 5388 5386 5384 5383 5381 5378 5375 5372 5370 5367 5363 5359 5356 5353 5350 5347 5343 5339 5335 5330 5327 5323 5318 5312 5306 5301 5295 5290 5283 5276 5269 5263 5256 5249 5242 5236 5228 5220 5212 5206 5200 5195 5192 5188 5184 5180 5178 5176 5173 5168 5165 5164
5405 5405 5404 5404 5405 5405 5405 5404 5403 5402 5401 5399 5398 5397 5396 5396 5395 5395 5394 5394 5393 5392 5391 5391 5390 5389 5388 5387 5386 5385 5384 5382 5381 5379 5376 5374 5373 5371 5369 5366 5362 5360 5357 5354 5350 5346 5343 5340 5337 5334 5330 5326 5322 5318 5314 5310 5304 5298 5292 5285 5279 5273 5266 5258 5251 5244 5237 5230 5224 5216 5208 5202 5197 5193 5188 5185 5182 5177 5173 5171 5170 5168 5164 5160 5159
5393 5394 5394 5394 5394 5394 5394 5394 5393 5391 5390 5389 5388 5387 5386 5386 5385 5385 5385 5385 5384 5382 5381 5380 5380 5379 5378 5377 5376 5375 5374 5372 5371 5369 5367 5364 5362 5361 5359 5356 5352 5349 5347 5344 5340 5337 5334 5331 5328 5325 5322 5318 5314 5310 5306 5301 5295 5290 5284 5277 5270 5263 5256 5249 5241 5233 5225 5218 5212 5205 5198 5193 5189 5185 5182 5179 5176 5172 5168 5165 5163 5162 5160 5156 5155
5380 5382 5383 5384 5384 5383 5383 5382 5381 5379 5377 5377 5376 5376 5376 5375 5375 5374 5374 5375 5375 5373 5371 5370 5370 5369 5368 5367 5366 5365 5363 5362 5361 5359 5357 5355 5352 5350 5348 5346 5343 5340 5337 5335 5331 5328 5325 5323 5320 5316 5313 5310 5307 5302 5298 5294 5288 5282 5276 5269 5263 5256 5249 5241 5234 5227 5218 5209 5202 5195 5190 5185 5182 5179 5175 5173 5170 5166 5162 5159 5157 5156 5154 5152 5151
5366 5368 5370 5372 5372 5372 5372 5370 5369 5367 5366 5366 5366 5365 5364 5364 5364 5363 5364 5364 5364 5362 5360 5359 5359 5358 5357 5356 5356 5355 5354 5352 5351 5349 5347 5345 5342 5340 5338 5335 5333 5330 5327 5325 5322 5319 5316 5314 5311 5308 5305 5302 5299 5295 5291 5287 5282 5276 5269 5261 5254 5248 5242 5234 5226 5218 5210 5202 5193 5186 5182 5178 5175 5172 5169 5167 5165 5161 5157 5154 5151 5150 5149 5147 5146
5352 5354 5356 5358 5359 5360 5360 5359 5359 5357 5356 5356 5355 5354 5353 5353 5352 5353 5353 5353 5353 5351 5350 5348 5348 5348 5347 5346 5346 5345 5344 5343 5341 5339 5337 5335 5332 5330 5328 5325 5323 5320 5318 5315 5313 5310 5308 5306 5303 5300 5297 5294 5291 5288 5284 5280 5274 5269 5263 5255 5247 5240 5233 5226 5218 5210 5202 5194 5186 5179 5175 5172 5169 5166 5163 5161 5159 5156 5153 5149 5146 5145 5144 5143 5142
5337 5340 5342 5344 5345 5346 5347 5348 5348 5347 5347 5346 5345 5343 5342 5341 5341 5342 5342 5342 5342 5342 5341 5340 5339 5338 5337 5336 5335 5335 5334 5332 5331 5329 5327 5325 5323 5321 5318 5316 5313 5311 5308 5306 5304 5302 5300 5298 5295 5292 5289 5286 5283 5279 5275 5271 5266 5260 5255 5249 5241 5233 5224 5217 5209 5202 5193 5185 5178 5173 5170 5166 5162 5160 5157 5155 5153 5151 5148 5145 5142 5140 5139 5138 5137
5323 5325 5328 5330 5331 5332 5332 5334 5335 5335 5335 5335 5333 5331 5330 5330 5331 5331 5330 5330 5330 5331 5331 5332 5331 5329 5327 5326 5325 5325 5324 5322 5320 5318 5317 5316 5314 5312 5309 5306 5304 5301 5299 5297 5295 5294 5292 5290 5287 5285 5282 5279 5276 5271 5267 5262 5257 5252 5246 5239 5233 5225 5217 5208 5200 5193 5185 5177 5171 5167 5164 5160 5156 5154 5152 5149 5147 5145 5143 5140 5137 5135 5134 5133 5132
5308 5310 5312 5314 5316 5318 5318 5319 5320 5320 5321 5321 5320 5319 5319 5319 5319 5319 5318 5319 5319 5319 5319 5320 5321 5320 5318 5317 5316 5315 5314 5313 5310 5309 5308 5307 5305 5303 5300 5297 5295 5292 5290 5289 5287 5286 5284 5282 5280 5277 5274 5271 5268 5263 5258 5253 5248 5243 5237 5231 5223 5216 5208 5200 5192 5184 5177 5170 5165 5161 5158 5154 5151 5148 5146 5144 5141 5139 5137 5135 5132 5130 5128 5127 5127
5291 5293 5295 5297 5300 5301 5302 5304 5305 5305 5305 5306 5306 5307 5307 5307 5307 5308 5308 5308 5309 5309 5308 5308 5310 5310 5309 5307 5307 5306 5305 5303 5302 5300 5299 5298 5296 5294 5291 5289 5286 5284 5283 5281 5280 5279 5277 5275 5272 5270 5267 5263 5259 5255 5250 5245 5240 5234 5229 5222 5215 5208 5200 5192 5185 5177 5170 5165 5160 5156 5153 5149 5146 5143 5141 5138 5136 5134 5132 5130 5127 5125 5123 5121 5121
5274 5276 5278 5280 5281 5283 5284 5287 5289 5290 5291 5291 5292 5293 5295 5296 5296 5296 5296 5297 5298 5298 5297 5297 5299 5300 5299 5298 5297 5296 5295 5294 5292 5291 5290 5289 5287 5285 5283 5281 5279 5277 5276 5275 5273 5272 5270 5268 5265 5262 5259 5255 5251 5247 5242 5237 5232 5225 5219 5213 5206 5200 5192 5184 5177 5171 5165 5160 5155 5151 5148 5144 5141 5138 5136 5134 5131 5129 5127 5125 5122 5120 5118 5116 5116
5256 5258 5260 5262 5264 5265 5267 5270 5272 5274 5275 5275 5277 5279 5282 5284 5284 5283 5284 5286 5287 5286 5285 5285 5287 5288 5288 5288 5288 5287 5286 5285 5283 5283 5282 5280 5278 5276 5275 5273 5272 5270 5269 5268 5267 5265 5263 5261 5258 5255 5252 5248 5244 5240 5235 5229 5224 5218 5211 5204 5197 5191 5184 5177 5170 5164 5159 5155 5151 5146 5142 5139 5136 5133 5131 5129 5127 5125 5122 5120 5118 5115 5113 5111 5111
5239 5241 5242 5244 5246 5248 5250 5252 5255 5257 5259 5260 5262 5264 5266 5269 5270 5271 5272 5273 5274 5273 5273 5274 5276 5277 5278 5278 5278 5277 5276 5276 5275 5274 5273 5271 5270 5269 5268 5267 5265 5264 5262 5261 5260 5258 5257 5254 5252 5249 5245 5241 5237 5233 5228 5223 5217 5211 5204 5197 5190 5182 5175 5169 5164 5159 5154 5150 5146 5142 5138 5134 5131 5129 5126 5124 5122 5120 5118 5115 5113 5111 5108 5106 5106
5222 5224 5226 5227 5229 5232 5234 5236 5238 5240 5243 5245 5247 5249 5251 5253 5255 5257 5260 5261 5261 5261 5262 5264 5266 5267 5267 5268 5267 5267 5267 5267 5266 5265 5264 5263 5263 5262 5261 5260 5259 5258 5256 5255 5254 5252 5250 5248 5245 5242 5238 5234 5230 5225 5221 5216 5210 5204 5197 5191 5183 5176 5169 5163 5159 5155 5151 5147 5143 5138 5134 5130 5127 5125 5122 5120 5118 5116 5113 5111 5108 5106 5104 5103 5102
5207 5208 5210 5212 5214 5216 5219 5220 5222 5224 5227 5229 5232 5234 5236 5238 5241 5244 5246 5248 5248 5250 5253 5255 5256 5256 5257 5258 5258 5258 5258 5258 5257 5257 5256 5256 5256 5256 5255 5254 5253 5252 5250 5249 5248 5246 5244 5241 5238 5234 5231 5226 5222 5217 5213 5208 5203 5197 5190 5183 5176 5170 5163 5158 5154 5151 5147 5143 5139 5134 5130 5126 5123 5121 5119 5116 5114 5112 5109 5107 5105 5102 5100 5099 5098
5191 5193 5195 5198 5199 5201 5203 5205 5207 5209 5212 5215 5218 5220 5223 5225 5227 5230 5232 5235 5237 5241 5243 5244 5245 5246 5247 5248 5249 5249 5249 5249 5249 5249 5250 5250 5250 5250 5249 5248 5247 5246 5245 5244 5242 5239 5237 5234 5231 5228 5224 5219 5215 5210 5205 5200 5195 5190 5183 5176 5169 5164 5158 5153 5150 5146 5143 5139 5135 5130 5126 5122 5119 5117 5115 5113 5111 5108 5105 5103 5101 5099 5097 5096 5095
5178 5179 5181 5184 5185 5188 5190 5192 5194 5196 5199 5202 5205 5208 5211 5213 5216 5218 5220 5223 5227 5230 5232 5233 5235 5236 5238 5239 5240 5240 5240 5241 5242 5243 5244 5244 5244 5243 5243 5242 5241 5241 5239 5238 5235 5233 5230 5228 5225 5221 5217 5212 5208 5203 5199 5194 5189 5183 5176 5169 5163 5158 5154 5150 5146 5142 5139 5136 5132 5127 5123 5119 5116 5113 5111 5109 5107 5105 5102 5100 5098 5096 5095 5093 5092
5166 5168 5170 5172 5174 5177 5179 5181 5182 5185 5187 5191 5194 5196 5199 5202 5205 5208 5210 5213 5216 5219 5221 5223 5225 5226 5228 5229 5231 5232 5232 5234 5235 5237 5238 5238 5238 5237 5237 5236 5236 5235 5233 5231 5229 5227 5224 5221 5218 5214 5210 5206 5201 5197 5192 5188 5183 5177 5170 5164 5158 5153 5149 5145 5142 5138 5135 5132 5129 5125 5120 5117 5113 5110 5108 5105 5103 5101 5099 5097 5095 5094 5092 5091 5090
5157 5159 5161 5163 5166 5168 5169 5171 5172 5174 5177 5181 5184 5186 5189 5193 5196 5199 5202 5205 5207 5210 5212 5214 5216 5218 5219 5221 5223 5224 5226 5227 5229 5230 5231 5232 5232 5232 5231 5231 5230 5229 5227 5225 5223 5221 5218 5215 5211 5207 5203 5198 5194 5189 5184 5180 5175 5170 5163 5157 5152 5148 5144 5140 5137 5134 5131 5128 5125 5121 5117 5114 5110 5107 5105 5102 5100 5098 5096 5095 5093 5092 5091 5090 5089
5150 5152 5154 5156 5158 5159 5160 5161 5163 5165 5169 5172 5176 5179 5183 5186 5189 5193 5195 5198 5200 5202 5204 5206 5209 5210 5212 5214 5216 5218 5220 5222 5223 5224 5225 5226 5226 5226 5226 5225 5224 5223 5221 5220 5218 5215 5213 5209 5205 5200 5196 5192 5187 5182 5177 5172 5167 5161 5155 5150 5146 5143 5139 5136 5133 5130 5127 5123 5120 5117 5113 5110 5107 5105 5102 5099 5097 5095 5094 5092 5091 5090 5089 5088 5088
5143 5145 5147 5148 5149 5150 5152 5153 5155 5159 5163 5167 5170 5173 5176 5179 5182 5185 5187 5190 5192 5195 5197 5199 5202 5204 5206 5208 5211 5213 5214 5216 5217 5219 5219 5220 5220 5220 5220 5219 5218 5217 5216 5214 5212 5210 5207 5203 5200 5195 5191 5186 5181 5176 5171 5165 5160 5154 5149 5144 5140 5137 5134 5131 5128 5125 5123 5119 5116 5112 5109 5107 5104 5102 5099 5097 5095 5093 5092 5090 5090 5089 5088 5087 5087
5136 5138 5140 5141 5142 5144 5146 5148 5151 5154 5158 5162 5165 5167 5170 5172 5175 5177 5179 5182 5185 5187 5190 5193 5196 5198 5201 5203 5205 5207 5209 5210 5212 5213 5214 5214 5215 5215 5214 5213 5212 5211 5210 5208 5206 5203 5201 5198 5194 5190 5186 5182 5176 5171 5165 5160 5154 5149 5144 5139 5136 5133 5130 5127 5124 5122 5119 5116 5113 5109 5106 5103 5101 5099 5097 5094 5092 5091 5090 5089 5088 5088 5086 5086 5087
5131 5132 5134 5136 5137 5139 5141 5144 5147 5151 5154 5157 5159 5161 5164 5166 5168 5170 5172 5175 5178 5181 5185 5188 5191 5194 5196 5199 5201 5202 5204 5205 5206 5208 5208 5209 5209 5209 5208 5208 5207 5205 5204 5202 5199 5197 5194 5191 5188 5184 5180 5176 5171 5165 5160 5155 5150 5145 5140 5136 5132 5129 5126 5124 5121 5119 5116 5113 5110 5106 5103 5100 5098 5096 5094 5092 5090 5089 5088 5087 5087 5086 5085 5085 5086
5126 5128 5130 5131 5133 5135 5138 5141 5144 5148 5150 5152 5154 5156 5158 5160 5162 5164 5167 5170 5174 5177 5181 5184 5187 5189 5192 5194 5196 5197 5199 5200 5202 5202 5203 5203 5203 5203 5203 5202 5201 5199 5197 5195 5193 5191 5188 5185 5182 5178 5174 5169 5165 5160 5155 5150 5145 5141 5136 5132 5129 5126 5123 5121 5118 5115 5113 5110 5108 5104 5101 5098 5096 5093 5092 5090 5088 5087 5086 5086 5085 5085 5084 5084 5084
5123 5125 5127 5128 5130 5133 5136 5139 5141 5143 5145 5146 5148 5150 5152 5155 5158 5161 5164 5167 5171 5174 5177 5180 5183 5185 5188 5190 5191 5193 5194 5196 5197 5197 5198 5198 5198 5198 5197 5196 5195 5193 5191 5189 5187 5185 5182 5179 5176 5172 5168 5163 5159 5154 5149 5145 5141 5137 5133 5129 5125 5123 5120 5118 5115 5112 5110 5107 5104 5102 5099 5096 5094 5091 5090 5088 5086 5085 5085 5084 5084 5083 5082 5082 5083
5121 5123 5124 5126 5128 5131 5133 5135 5137 5139 5140 5142 5144 5146 5148 5151 5155 5158 5161 5165 5168 5171 5174 5177 5179 5182 5184 5186 5187 5189 5190 5191 5192 5192 5193 5193 5193 5192 5191 5190 5189 5187 5185 5183 5181 5179 5176 5173 5170 5166 5162 5158 5153 5148 5144 5140 5136 5132 5129 5125 5122 5119 5117 5115 5113 5110 5107 5104 5101 5099 5096 5094 5091 5089 5087 5086 5085 5084 5083 5083 5082 5082 5081 5081 5081